Location: Sullivan Central High School
(36.5298°N, 82.3860°W)
Time: 23:10:32
(UTC-05:00)

ISS - Visible Passes

Search period start: 10 December 2018 00:00
Search period end: 20 December 2018 00:00
Orbit: 401 x 408 km, 51.6° (Epoch: 12 December)

Date Brightness Start Highest point End Pass type
(mag) Time Alt. Az. Time Alt. Az. Time Alt. Az.
10 Dec -1.8 17:43:04 10° N 17:44:56 14° NNE 17:46:48 10° ENE visible
10 Dec -1.7 19:18:31 10° NW 19:19:51 22° NW 19:19:51 22° NW visible
11 Dec -3.6 18:26:25 10° NW 18:29:35 47° NE 18:30:38 32° E visible
12 Dec -1.9 19:10:53 10° WNW 19:13:44 28° SW 19:14:35 24° SSW visible
13 Dec -3.3 18:18:24 10° NW 18:21:37 61° SW 18:24:49 10° SE visible
14 Dec -0.3 19:04:44 10° WSW 19:05:28 11° SW 19:06:13 10° SW visible
15 Dec -1.0 18:10:52 10° WNW 18:13:26 22° SW 18:16:01 10° S visible
